Regional Weather Roundup
Issued by NWS

Home | Current Version | Previous Version | Graphics & Text | Print | Product List | Glossary On
Versions: 1 2 3 4 5 6 7 8 9 10 11 12 13 14 15 16 17 18 19 20 21 22 23 24 25 26 27
000
ASUS45 KBOU 021207
RWRCO

WEATHER ROUNDUP FOR COLORADO
NATIONAL WEATHER SERVICE DENVER/BOULDER CO
500 AM MST FRI DEC 02 2016

NOTE: "FAIR" INDICATES FEW OR NO CLOUDS BELOW 12000 FEET WITH NO
SIGNIFICANT WEATHER AND/OR OBSTRUCTIONS TO VISIBILITY.

COZ001>005-013-030-031-021300-
...NORTHWEST COLORADO...

CITY           SKY/WX    TMP DP  RH WIND       PRES   REMARKS
CRAIG          FAIR      12   9  87 CALM      30.09S
HAYDEN         FAIR      16  10  79 NE5       30.06F WCI   9
MEEKER         CLOUDY    16  13  88 CALM      30.05S
MOUNT WERNER   NOT AVBL
STEAMBOAT SPGS CLOUDY    15  12  87 CALM      30.06S
WALDEN           N/A     10   5  79 CALM      30.04S
$$

COZ006>008-011-021300-
...WEST CENTRAL VALLEYS...

CITY           SKY/WX    TMP DP  RH WIND       PRES   REMARKS
GRAND JUNCTION MOCLDY    29  22  75 S6        30.02F WCI  23
MONTROSE       CLOUDY    21  14  74 S7        30.04F WCI  12
EAGLE          FLURRIES  21  19  92 CALM      30.07S
RIFLE          CLOUDY    25  20  81 CALM      30.05F
DELTA          FAIR      25  19  77 CALM      30.04F
NUCLA          CLOUDY    23  16  74 CALM      30.03R
$$

COZ017>023-064>068-021300-
...SOUTHWEST COLORADO...

CITY           SKY/WX    TMP DP  RH WIND       PRES   REMARKS
DURANGO        CLOUDY    20  14  77 CALM      29.95R
CORTEZ         FAIR      16  12  84 CALM      29.96F
PAGOSA SPRINGS FAIR      13  11  95 CALM      29.95S
TELLURIDE      FAIR      14  10  87 SE7       29.93F WCI   3
WOLF CREEK PAS MOCLDY     9   7  92 E3        29.96S
$$

COZ009-010-012-014-032>034-037-058>063-021300-
...CENTRAL COLORADO...

CITY           SKY/WX    TMP DP  RH WIND       PRES   REMARKS
ASPEN          CLOUDY    14  10  84 CALM      29.98S
BUENA VISTA    NOT AVBL
COPPER MTN     CLOUDY    14   1  57 MISG      29.92S
BERTHOUD PASS  CLOUDY     3  -9  55 SW3       29.92S
COTTONWOOD PAS FAIR      19  10  68 W3        29.95F
GUNNISON       FAIR       9   5  84 NE6       29.99F WCI  -1
KREMMLING      LGT SNOW  21  18  86 CALM      30.06S
LEADVILLE      CLOUDY     8   3  80 E5        29.93F WCI   0
MONARCH PASS     N/A      9   5  85 E5        30.01S WCI   0
SALIDA         FAIR      12   5  73 CALM      30.09S
SUNLIGHT       LGT SNOW N/A N/A N/A NE3       29.97S
WILKERSON PASS FAIR      12   7  79 SW5       29.96F WCI   4
$$

COZ069>075-021300-
...SAN LUIS VALLEY/SANGRE DE CRISTO MOUNTAINS...

CITY           SKY/WX    TMP DP  RH WIND       PRES   REMARKS
ALAMOSA        FAIR       7   2  80 NW6       29.98S WCI  -3
LA VETA PASS   MOCLDY    18   9  68 S3        29.95S
SAGUACHE       FAIR      10   5  79 N12       29.98F WCI  -4
$$

COZ035-036-038>040-021300-
...NORTHERN COLORADO FRONT RANGE...

CITY           SKY/WX    TMP DP  RH WIND       PRES   REMARKS
DENVER INTL AP MOCLDY    22  11  62 SE8       30.08R WCI  12
DMNS CITY PARK   N/A     23  11  60 N2        30.10R
AURORA         CLOUDY    22  10  62 CALM      30.08R
FRONT RANGE AP CLOUDY    21  14  73 S6        30.08S WCI  14
ERIE MUNI ARPT CLOUDY    18  12  80 CALM      30.10S
BOULDER MUN AP CLOUDY    28  10  47 W6        30.09S WCI  22
CENTENNIAL     CLOUDY    20  10  65 SW6       30.07S WCI  12
BROOMFIELD     CLOUDY    27  14  59 N8        30.08S WCI  18
FORT COLLINS   FAIR      21  10  63 CALM      30.11S
LONGMONT       CLOUDY    22  11  63 W5        30.13S WCI  16
$$

COZ041-046-047-076>085-087-088-021300-
...PIKES PEAK/PALMER DIVIDE AND SOUTHERN FOOTHILLS...

CITY           SKY/WX    TMP DP  RH WIND       PRES   REMARKS
COLO. SPRINGS  FAIR      17   4  56 N9        30.04F WCI   6
A. F. ACADEMY  CLOUDY    12   5  71 N10       30.03F WCI  -1
SCHRIEVER AFB  NOT AVBL
ELLICOTT       FAIR     N/A N/A N/A E10         N/A
FALCON         FAIR      19   5  53 N6        30.04S WCI  11
FORT CARSON    FAIR      18   5  57 N8        30.02F WCI   7
LIMON          MOCLDY    12   7  80 N6        30.08F WCI   3
MONUMENT HILL  FAIR      16   7  67 NW3       30.05S
TRINIDAD       MOCLDY    19   7  59 NW7       30.03R WCI  10
$$

COZ042>045-048>051-090-091-021300-
...NORTHEAST COLORADO...

CITY           SKY/WX    TMP DP  RH WIND       PRES   REMARKS
GREELEY ARPT   CLOUDY    15   8  73 CALM      30.13R
AKRON          CLOUDY    24  16  71 NW5       30.10S WCI  18
BURLINGTON     FAIR      15   6  67 W7        30.11F WCI   5
WRAY           CLOUDY    21  18  86 W5        30.14R WCI  15
STERLING       CLOUDY    18  14  86 W3        30.12S
HOLYOKE        FAIR      21  18  86 NW7       30.13S WCI  13
FORT MORGAN    CLOUDY    25  15  66 N3        30.12S
$$

COZ086-089-092>099-021300-
...SOUTHEAST COLORADO...

CITY           SKY/WX    TMP DP  RH WIND       PRES   REMARKS
PUEBLO         FAIR      16   8  71 SW5       30.07S WCI   9
LA JUNTA       FAIR      18  12  77 W8        30.08F WCI   8
LAMAR          FAIR       8   4  83 SW8       30.10R WCI  -4
SPRINGFIELD      N/A     14   7  73 NW9       30.05F WCI   2
$$




USA.gov is the U.S. government's official web portal to all federal, state and local government web resources and services.